Tracking 20721 objects as of 1-Jun-2020
HD Live streaming from Space Station
objects crossing your sky now

CICERO 10

Track CICERO 10 now!
10-day predictions


NORAD ID: 43690
Int'l Code: 2018-088A
Perigee: 501.4 km
Apogee: 523.3 km
Inclination: 85.0 °
Period: 94.7 minutes
Semi major axis: 6883 km
RCS: Unknown
Launch date: November 11, 2018
Source: United States (US)
Launch site: Rocket Lab Launch Complex (RLLC)
aabbcc
Your satellite tracking list
Your tracking list is empty




NASA's NSSDC Master Catalog

Two Line Element Set (TLE):
1 43690U 18088A   20151.39141109 +.00000753 +00000-0 +32794-4 0  9998
2 43690 085.0382 090.2223 0015848 024.8875 335.3126 15.20209138086017
Source of the keplerian elements: AFSPC